Location: Wanzleben
(52.0609°N, 11.4408°E)
Time: 20:09:05
(UTC+00:00)

X-37B - Visible Passes

Search period start: 29 November 2020 00:00
Search period end: 09 December 2020 00:00
Orbit: 384 x 389 km, 45.0° (Epoch: 12 November)

Date Brightness Start Highest point End Pass type
(mag) Time Alt. Az. Time Alt. Az. Time Alt. Az.
29 Nov 3.4 17:48:13 10° SSW 17:48:55 13° SSW 17:48:55 13° SSW visible
30 Nov 2.9 16:50:21 10° SSW 16:52:07 14° SSE 16:52:59 13° SE visible
01 Dec 3.3 15:53:22 10° SSE 15:53:49 10° SSE 15:54:16 10° SE visible
01 Dec 2.6 17:27:13 10° SW 17:29:18 20° S 17:29:18 20° S visible
02 Dec 2.8 16:29:05 10° SSW 16:31:19 18° SSE 16:33:20 11° ESE visible
02 Dec 3.5 18:04:47 10° WSW 18:05:36 15° SW 18:05:36 15° SW visible
03 Dec 2.4 17:06:22 10° SW 17:08:57 23° S 17:09:39 21° SSE visible
04 Dec 2.7 16:08:05 10° SW 16:10:33 21° S 16:13:03 10° ESE visible
04 Dec 2.9 17:44:08 10° WSW 17:46:00 19° SSW 17:46:00 19° SSW visible
05 Dec 2.6 16:45:39 10° WSW 16:48:13 23° S 16:50:07 14° SE visible
06 Dec 2.7 15:47:14 10° SW 15:49:49 23° S 15:52:23 10° ESE visible
06 Dec 2.9 17:23:38 10° WSW 17:25:50 17° SSW 17:26:35 16° S visible
07 Dec 2.9 16:25:01 10° WSW 16:27:28 21° S 16:29:55 10° SE visible
08 Dec 3.5 17:03:21 10° SW 17:05:01 14° SSW 17:06:42 10° S visible
